Location: Newark
(44.1667°N, 8.2500°E)
Time: 08:21:03
(UTC+00:00)

Envisat - Pass Details

Date: 14 November 2019
Orbit: 764 x 766 km, 98.1° (Epoch: 15 December)

Event Time Altitude Azimuth Distance (km) Brightness Sun altitude
Rises 05:44:48 0° 20° (NNE) 3,242 6.3 -6.8°
Reaches altitude 10° 05:47:16 10° 29° (NNE) 2,311 5.6 -6.4°
Maximum altitude 05:52:00 38° 97° (E) 1,156 4.8 -5.6°
Drops below altitude 10° 05:56:42 10° 165° (SSE) 2,294 6.0 -4.8°
Sets 05:59:08 0° 173° (S) 3,215 6.6 -4.4°
